Edwards AFB North Base, CA

3:57 AM PDT on June 23, 2017 (GMT -0700)
Edwards AFB North Base

Weather History for K9L2 - October, 2013

Change the Weather History Date:

Monday, October 28, 2013

  Actual Average (KEDW) Record (KEDW)
Temperature  
Mean Temperature 54 °F -  
Max Temperature 60 °F 70 °F 87 °F (2003)
Min Temperature 48 °F 39 °F 30 °F (1997)
Degree Days  
Heating Degree Days 12    
Growing Degree Days 4 (Base 50)    
Moisture  
Dew Point 39 °F    
Average Humidity 64    
Maximum Humidity 82    
Minimum Humidity 35    
Precipitation  
Precipitation 0.00 in - - ()
Sea Level Pressure  
Sea Level Pressure 29.76 in    
Wind  
Wind Speed 21 mph (SW)    
Max Wind Speed 31 mph    
Max Gust Speed 39 mph    
Visibility 10 miles    
Events Rain    
Averages and records for this station are not official NWS values.
T = Trace of Precipitation, MM = Missing Value Source: NWS Daily Summary

Daily Weather History Graph

Daily Weather History Graph

Search for Another Location

Airport or City:

Trip Planner

Search our weather history database for the weather conditions in past years. The results will help you decide how hot, cold, wet, or windy it might be!

Date:

Astronomy

Oct. 28, 2013 Rise Set
Actual Time 7:09 AM PDT 6:00 PM PDT
Civil Twilight 6:43 AM PDT 6:26 PM PDT
Nautical Twilight 6:13 AM PDT 6:56 PM PDT
Astronomical Twilight 5:43 AM PDT 7:26 PM PDT
Moon 1:19 AM PDT (10/28) 2:33 PM PDT (10/28)
Length of Visible Light 11h 43m
Length of Day
10h 51m
Waning Crescent, 33% of the Moon is Illuminated
Oct 28
Waning Crescent
Nov 3
New
Nov 9
First Quarter
Nov 17
Full
Nov 25
Last Quarter

Hourly Weather History & Observations

Time (PDT) Temp. Dew Point Humidity Pressure Visibility Wind Dir Wind Speed Gust Speed Precip Events Conditions
12:55 AM 54.0 °F 45.0 °F 72% 29.63 in 10.0 mi SW 31.1 mph 39.1 mph N/A   Clear
1:55 AM 53.1 °F 46.0 °F 77% 29.65 in 10.0 mi SW 24.2 mph 33.4 mph N/A   Clear
2:55 AM 52.0 °F 45.0 °F 77% 29.65 in 10.0 mi SW 20.7 mph 34.5 mph N/A   Clear
3:55 AM 51.1 °F 43.0 °F 74% 29.65 in 10.0 mi West 16.1 mph 23.0 mph N/A   Clear
4:34 AM 51.8 °F 42.8 °F 71% 29.69 in 10.0 mi West 20.7 mph 28.8 mph N/A   Partly Cloudy
4:47 AM 51.8 °F 42.8 °F 71% 29.69 in 10.0 mi West 13.8 mph 26.5 mph N/A   Mostly Cloudy
4:55 AM 50.0 °F 42.1 °F 74% 29.67 in 10.0 mi West 12.7 mph - N/A   Scattered Clouds
5:47 AM 50.0 °F 33.8 °F 54% 29.70 in 9.0 mi WSW 17.3 mph 24.2 mph N/A   Overcast
6:58 AM 48.2 °F 41.0 °F 76% 29.72 in 10.0 mi WSW 17.3 mph 31.1 mph N/A   Overcast
7:05 AM 48.2 °F 39.2 °F 71% 29.72 in 10.0 mi WSW 18.4 mph 26.5 mph N/A   Mostly Cloudy
7:37 AM 48.2 °F 39.2 °F 71% 29.74 in 10.0 mi SW 24.2 mph 32.2 mph N/A   Mostly Cloudy
7:55 AM 48.9 °F 39.9 °F 71% 29.75 in 10.0 mi SW 18.4 mph 26.5 mph N/A   Overcast
8:09 AM 48.2 °F 39.2 °F 71% - 10.0 mi SW 15.0 mph 26.5 mph N/A   Overcast
8:49 AM 51.8 °F 39.2 °F 62% 29.77 in 10.0 mi SW 21.9 mph 28.8 mph N/A   Scattered Clouds
8:55 AM 52.0 °F 37.9 °F 59% 29.76 in 10.0 mi SW 18.4 mph 28.8 mph N/A   Scattered Clouds
9:55 AM 54.0 °F 36.0 °F 51% 29.78 in 10.0 mi SW 23.0 mph 29.9 mph N/A   Clear
10:55 AM 57.0 °F 35.1 °F 44% 29.77 in 10.0 mi SW 27.6 mph 36.8 mph N/A   Clear
11:55 AM 57.9 °F 34.0 °F 41% 29.76 in 10.0 mi SW 31.1 mph 35.7 mph N/A   Scattered Clouds
12:55 PM 57.9 °F 34.0 °F 41% 29.75 in 10.0 mi SW 19.6 mph 33.4 mph N/A   Scattered Clouds
1:55 PM 59.0 °F 33.1 °F 38% 29.73 in 10.0 mi SW 19.6 mph 32.2 mph N/A   Mostly Cloudy
2:55 PM 59.0 °F 30.9 °F 35% 29.72 in 10.0 mi SW 24.2 mph 35.7 mph N/A   Mostly Cloudy
3:55 PM 57.9 °F 34.0 °F 41% 29.73 in 10.0 mi SW 27.6 mph 38.0 mph N/A   Partly Cloudy
4:55 PM 55.9 °F 34.0 °F 44% 29.74 in 10.0 mi SW 26.5 mph 39.1 mph N/A   Clear
5:55 PM 53.1 °F 36.0 °F 52% 29.78 in 10.0 mi SW 17.3 mph 29.9 mph N/A   Mostly Cloudy
6:11 PM 53.6 °F 37.4 °F 54% 29.78 in 10.0 mi SW 19.6 mph 29.9 mph N/A   Overcast
6:41 PM 48.2 °F 42.8 °F 82% 29.80 in 7.0 mi SW 21.9 mph 29.9 mph 0.00 in Rain Light Rain
6:55 PM 48.9 °F 42.1 °F 77% 29.81 in 10.0 mi SW 20.7 mph 29.9 mph 0.00 in Rain Light Rain
7:55 PM 48.9 °F 39.9 °F 71% 29.83 in 10.0 mi SW 17.3 mph - 0.00 in   Mostly Cloudy
8:12 PM 48.2 °F 39.2 °F 71% 29.82 in 10.0 mi SW 16.1 mph - N/A   Mostly Cloudy
8:42 PM 48.2 °F 39.2 °F 71% 29.82 in 10.0 mi SW 18.4 mph 27.6 mph N/A   Scattered Clouds
8:55 PM 48.0 °F 39.9 °F 74% 29.84 in 10.0 mi SW 16.1 mph 24.2 mph N/A   Partly Cloudy
9:10 PM 48.2 °F 39.2 °F 71% 29.83 in 10.0 mi WSW 16.1 mph - N/A   Mostly Cloudy
9:18 PM 48.2 °F 39.2 °F 71% 29.82 in 10.0 mi SW 19.6 mph 26.5 mph N/A   Mostly Cloudy
9:55 PM 48.0 °F 39.9 °F 74% 29.84 in 10.0 mi SW 18.4 mph 24.2 mph N/A   Partly Cloudy
10:55 PM 48.0 °F 39.9 °F 74% 29.86 in 10.0 mi SW 17.3 mph - N/A   Mostly Cloudy
11:55 PM 48.0 °F 39.9 °F 74% 29.88 in 10.0 mi SW 12.7 mph - N/A   Scattered Clouds